Location: Hollin Hills
(38.7573°N, 77.0661°W)
Time: 11:52:38
(UTC+00:00)

ISS - Pass Details

Date: 22 April 2026
Orbit: 414 x 424 km, 51.6° (Epoch: 11 May)

Event Time Altitude Azimuth Distance (km) Brightness Sun altitude
Exits shadow 08:08:30 43° 55° (NE) 603 -2.6 -23.7°
Drops below altitude 10° 08:10:52 10° 52° (NE) 1,501 0.2 -23.4°
Sets 08:12:59 0° 52° (NE) 2,370 1.6 -23.0°
